DW4698 Weather Reports


Display with metric or nautical units.
time (UTC)temp
F
wind
direction
speed
MPH
gust
MPH
rain 1hr
in
rain 24hr
in
rain mn
in
humidity
%
barometer
mb
20181021073358 38 233 0.0 0.0 0.00 0.00 0.00 89 1017.9
20181021072328 38 233 0.0 0.0 0.00 0.00 0.00 89 1018.0
20181021071326 38 233 0.0 0.0 0.00 0.00 0.00 89 1018.0
20181021070251 38 233 0.0 0.0 0.00 0.00 0.00 88 1018.0
20181021065307 38 233 0.0 0.0 0.00 0.00 0.00 88 1018.0
20181021064230 38 233 0.0 0.0 0.00 0.00 0.00 88 1018.1
20181021063236 38 233 0.0 0.0 0.00 0.00 0.00 88 1018.1
20181021062256 38 233 0.0 0.0 0.00 0.00 0.00 88 1018.2
20181021060119 39 233 0.0 0.0 0.00 0.00 0.00 87 1018.2
20181021055105 39 233 0.0 0.0 0.00 0.00 0.00 87 1018.2
20181021054055 39 233 0.0 0.0 0.00 0.00 0.00 87 1018.2
20181021053045 40 233 0.0 0.0 0.00 0.00 0.00 87 1018.1
20181021052044 40 233 0.0 0.0 0.00 0.00 0.00 86 1018.1
20181021051047 40 233 0.0 0.0 0.00 0.00 0.00 86 1018.1
20181021050031 41 233 0.0 0.0 0.00 0.00 0.00 86 1018.0
20181021045014 41 233 0.0 0.0 0.00 0.00 0.00 86 1017.9
20181021044019 41 233 0.0 0.0 0.00 0.00 0.00 85 1017.9
20181021042957 41 233 0.0 0.0 0.00 0.00 0.00 85 1017.9
20181021042009 42 233 0.0 0.0 0.00 0.00 0.00 84 1017.8
20181021041017 43 233 0.0 0.0 0.00 0.00 0.00 85 1017.7
20181021040032 43 233 0.0 0.0 0.00 0.00 0.00 84 1017.7
20181021035033 43 233 0.0 0.0 0.00 0.00 0.00 84 1017.7
20181021034043 44 233 0.0 0.0 0.00 0.00 0.00 82 1017.7
20181021033013 44 233 0.0 0.0 0.00 0.00 0.00 82 1017.7
20181021032011 45 233 0.0 0.0 0.00 0.00 0.00 82 1017.7
20181021031029 45 233 0.0 0.0 0.00 0.00 0.00 79 1017.8
20181021030050 47 233 0.0 0.0 0.00 0.00 0.00 78 1017.7
20181021025104 47 233 0.0 0.0 0.00 0.00 0.00 77 1017.7
20181021024055 48 233 0.0 0.0 0.00 0.00 0.00 76 1017.8
20181021023105 49 233 0.0 0.0 0.00 0.00 0.00 74 1017.9
20181021022117 50 233 0.0 0.0 0.00 0.00 0.00 73 1017.9
20181021021119 51 233 0.0 0.0 0.00 0.00 0.00 69 1017.9
20181021020129 52 233 0.0 0.0 0.00 0.00 0.00 71 1018.0
20181021015113 53 233 0.0 0.0 0.00 0.00 0.00 69 1017.9
20181021014129 54 233 0.0 0.0 0.00 0.00 0.00 66 1017.8
20181021013129 55 233 0.0 0.0 0.00 0.00 0.00 65 1017.8
20181021012054 56 233 0.0 0.0 0.00 0.00 0.00 64 1017.8
20181021011044 57 233 0.0 0.0 0.00 0.00 0.00 62 1017.8
20181021010040 59 233 0.0 0.0 0.00 0.00 0.00 59 1017.8
20181021005100 60 233 0.0 0.0 0.00 0.00 0.00 56 1017.8
20181021004025 62 233 0.0 0.0 0.00 0.00 0.00 53 1017.8
20181021003027 63 233 0.0 0.0 0.00 0.00 0.00 52 1017.8
20181021001951 64 233 0.0 0.0 0.00 0.00 0.00 49 1017.8
20181021000939 65 233 0.0 0.0 0.00 0.00 0.00 47 1017.8
20181020235919 66 233 0.0 0.0 0.00 0.00 0.00 45 1017.8
20181020234850 67 233 0.0 0.0 0.00 0.00 0.00 43 1017.8
20181020233841 67 233 0.0 0.0 0.00 0.00 0.00 42 1017.9
20181020232900 68 233 0.0 0.0 0.00 0.00 0.00 40 1018.1
20181020231841 69 233 0.0 0.0 0.00 0.00 0.00 39 1018.1
20181020230849 70 233 0.0 0.0 0.00 0.00 0.00 38 1018.2
20181020225849 70 233 0.0 0.0 0.00 0.00 0.00 37 1018.3
20181020224902 71 233 0.0 0.0 0.00 0.00 0.00 34 1018.4
20181020223839 72 233 0.0 0.0 0.00 0.00 0.00 34 1018.5
20181020222814 72 233 0.0 0.0 0.00 0.00 0.00 36 1018.6
20181020221741 72 233 0.0 0.0 0.00 0.00 0.00 35 1018.8
20181020220754 72 233 0.0 0.0 0.00 0.00 0.00 35 1018.9
20181020215804 72 233 0.0 0.0 0.00 0.00 0.00 35 1019.1
20181020214805 72 233 0.0 0.0 0.00 0.00 0.00 36 1019.3
20181020213730 71 233 0.0 0.0 0.00 0.00 0.00 35 1019.5
20181020212725 71 233 0.0 0.0 0.00 0.00 0.00 36 1019.6
20181020211705 71 233 0.0 0.0 0.00 0.00 0.00 36 1019.9
20181020210725 70 233 0.0 0.0 0.00 0.00 0.00 39 1020.1
20181020205729 70 233 0.0 0.0 0.00 0.00 0.00 38 1020.2
20181020204708 69 233 0.0 0.0 0.00 0.00 0.00 40 1020.5
20181020203653 69 233 0.0 0.0 0.00 0.00 0.00 39 1020.6
20181020202645 69 233 0.0 0.0 0.00 0.00 0.00 39 1020.7
20181020201636 68 233 0.0 0.0 0.00 0.00 0.00 40 1021.0
20181020200613 68 233 0.0 0.0 0.00 0.00 0.00 42 1021.1
20181020195600 67 233 0.0 0.0 0.00 0.00 0.00 41 1021.3
20181020194536 67 233 0.0 0.0 0.00 0.00 0.00 41 1021.6
20181020193530 67 233 0.0 0.0 0.00 0.00 0.00 45 1021.7
20181020192459 66 233 0.0 0.0 0.00 0.00 0.00 44 1021.9
20181020191427 66 233 0.0 0.0 0.00 0.00 0.00 45 1022.0
20181020190417 65 233 0.0 0.0 0.00 0.00 0.00 48 1022.2
20181020185412 64 233 0.0 0.0 0.00 0.00 0.00 48 1022.4
20181020184429 63 233 0.0 0.0 0.00 0.00 0.00 52 1022.5
20181020183354 62 233 0.0 0.0 0.00 0.00 0.00 54 1022.7
20181020182352 61 233 0.0 0.0 0.00 0.00 0.00 55 1022.8
20181020181345 61 233 0.0 0.0 0.00 0.00 0.00 55 1022.8
20181020180308 60 233 0.0 0.0 0.00 0.00 0.00 58 1023.0
20181020175250 59 233 0.0 0.0 0.00 0.00 0.00 58 1023.1
20181020174300 57 233 0.0 0.0 0.00 0.00 0.00 62 1023.3
20181020173225 56 233 0.0 0.0 0.00 0.00 0.00 64 1023.4
20181020172201 54 233 0.0 0.0 0.00 0.00 0.00 69 1023.5
20181020171125 52 233 0.0 0.0 0.00 0.00 0.00 73 1023.7
20181020170132 50 233 0.0 0.0 0.00 0.00 0.00 75 1023.7
20181020165111 49 233 0.0 0.0 0.00 0.00 0.00 80 1023.7
20181020164117 48 233 0.0 0.0 0.00 0.00 0.00 84 1023.8
20181020163054 46 233 0.0 0.0 0.00 0.00 0.00 90 1023.7
20181020162102 44 233 0.0 0.0 0.00 0.00 0.00 91 1023.8
20181020161102 42 233 0.0 0.0 0.00 0.00 0.00 91 1024.0
20181020160028 40 233 0.0 0.0 0.00 0.00 0.00 91 1024.1
20181020155016 38 233 0.0 0.0 0.00 0.00 0.00 91 1024.0
20181020154019 37 233 0.0 0.0 0.00 0.00 0.00 91 1024.0
20181020153006 37 233 0.0 0.0 0.00 0.00 0.00 90 1024.0
20181020152006 36 233 0.0 0.0 0.00 0.00 0.00 90 1024.0
20181020151009 35 233 0.0 0.0 0.00 0.00 0.00 90 1024.0
20181020150011 35 233 0.0 0.0 0.00 0.00 0.00 90 1023.9
20181020144938 34 233 0.0 0.0 0.00 0.00 0.00 89 1024.0
20181020143913 34 233 0.0 0.0 0.00 0.00 0.00 89 1023.9
20181020142902 34 233 0.0 0.0 0.00 0.00 0.00 89 1023.9
20181020141846 35 233 0.0 0.0 0.00 0.00 0.00 89 1023.8
20181020140837 35 233 0.0 0.0 0.00 0.00 0.00 89 1023.8
20181020135855 35 233 0.0 0.0 0.00 0.00 0.00 89 1023.9
20181020134819 35 233 0.0 0.0 0.00 0.00 0.00 89 1023.8
20181020133749 35 233 0.0 0.0 0.00 0.00 0.00 89 1023.9
20181020132803 35 233 0.0 0.0 0.00 0.00 0.00 89 1024.0
20181020131823 34 233 0.0 0.0 0.00 0.00 0.00 89 1023.9
20181020130807 35 233 0.0 0.0 0.00 0.00 0.00 89 1023.9
20181020125823 35 233 0.0 0.0 0.00 0.00 0.00 89 1023.8
20181020124833 35 233 0.0 0.0 0.00 0.00 0.00 89 1024.0
20181020123832 35 233 0.0 0.0 0.00 0.00 0.00 89 1024.0
20181020122849 35 233 0.0 0.0 0.00 0.00 0.00 89 1024.0
20181020121827 35 233 0.0 0.0 0.00 0.00 0.00 89 1024.1
20181020120757 35 233 0.0 0.0 0.00 0.00 0.00 88 1024.1
20181020115725 35 233 0.0 0.0 0.00 0.00 0.00 88 1024.0
20181020114658 36 233 0.0 0.0 0.00 0.00 0.00 88 1024.0
20181020113642 36 233 0.0 0.0 0.00 0.00 0.00 88 1024.2
20181020112647 36 233 0.0 0.0 0.00 0.00 0.00 88 1024.3
20181020111642 36 233 0.0 0.0 0.00 0.00 0.00 88 1024.3
20181020110655 36 233 0.0 0.0 0.00 0.00 0.00 88 1024.3
20181020105702 37 233 0.0 0.0 0.00 0.00 0.00 88 1024.2
20181020104707 37 233 0.0 0.0 0.00 0.00 0.00 88 1024.3
20181020103725 37 233 0.0 0.0 0.00 0.00 0.00 88 1024.2
20181020102731 37 233 0.0 0.0 0.00 0.00 0.00 87 1024.1
20181020101720 37 233 0.0 0.0 0.00 0.00 0.00 87 1024.1
20181020100726 37 233 0.0 0.0 0.00 0.00 0.00 87 1024.2
20181020095707 37 233 0.0 0.0 0.00 0.00 0.00 86 1024.3
20181020094716 37 233 0.0 0.0 0.00 0.00 0.00 86 1024.3
20181020093723 38 233 0.0 0.0 0.00 0.00 0.00 86 1024.3
20181020092742 38 233 0.0 0.0 0.00 0.00 0.00 86 1024.3
20181020091734 39 233 0.0 0.0 0.00 0.00 0.00 86 1024.3
20181020090703 39 233 0.0 0.0 0.00 0.00 0.00 85 1024.4
20181020085635 39 233 0.0 0.0 0.00 0.00 0.00 85 1024.5
20181020084559 40 233 0.0 0.0 0.00 0.00 0.00 84 1024.4
20181020083618 40 233 0.0 0.0 0.00 0.00 0.00 84 1024.5
20181020082604 40 233 0.0 0.0 0.00 0.00 0.00 84 1024.5
20181020081626 40 233 0.0 0.0 0.00 0.00 0.00 85 1024.6
20181020080601 40 233 0.0 0.0 0.00 0.00 0.00 85 1024.5
20181020075601 40 233 0.0 0.0 0.00 0.00 0.00 85 1024.6
20181020074608 40 233 0.0 0.0 0.00 0.00 0.00 85 1024.5